Jefferson, NC

5:24 AM EST on November 19, 2017 (GMT -0500)
Ashe County

Weather History for KGEV - November, 2012

Change the Weather History Date:

Wednesday, November 28, 2012

  Actual Average Record
Temperature  
Mean Temperature 37 °F -  
Max Temperature 42 °F 53 °F 69 °F (1985)
Min Temperature 32 °F 34 °F 13 °F (1991)
Degree Days  
Heating Degree Days 28    
Moisture  
Dew Point 21 °F    
Average Humidity 59    
Maximum Humidity 81    
Minimum Humidity 29    
Precipitation  
Precipitation 0.00 in - - ()
Sea Level Pressure  
Sea Level Pressure 30.24 in    
Wind  
Wind Speed 9 mph (NW)    
Max Wind Speed 18 mph    
Max Gust Speed 25 mph    
Visibility 10 miles    
Events      
Averages and records for this station are not official NWS values.
T = Trace of Precipitation, MM = Missing Value Source: NWS Daily Summary

Daily Weather History Graph

Daily Weather History Graph

Search for Another Location

Airport or City:

Trip Planner

Search our weather history database for the weather conditions in past years. The results will help you decide how hot, cold, wet, or windy it might be!

Date:

Astronomy

Nov. 28, 2012 Rise Set
Actual Time 7:16 AM EST 5:10 PM EST
Civil Twilight 6:48 AM EST 5:39 PM EST
Nautical Twilight 6:16 AM EST 6:10 PM EST
Astronomical Twilight 5:45 AM EST 6:41 PM EST
Moon 5:25 PM EST (11/28) 7:12 AM EST (11/28)
Length of Visible Light 10h 50m
Length of Day
9h 54m
Full, 100% of the Moon is Illuminated
Nov 28
Full
Dec 6
Last Quarter
Dec 13
New
Dec 20
First Quarter
Dec 28
Full

Hourly Weather History & Observations

Time (EST) Temp. Windchill Dew Point Humidity Pressure Visibility Wind Dir Wind Speed Gust Speed Precip Events Conditions
12:15 AM 35.6 °F 28.6 °F 28.4 °F 75% 30.19 in 10.0 mi WNW 9.2 mph 17.3 mph N/A   Overcast
12:35 AM 35.6 °F - 28.4 °F 75% 30.19 in 10.0 mi Calm Calm - N/A   Overcast
12:55 AM 35.6 °F 30.7 °F 28.4 °F 75% 30.18 in 10.0 mi NW 5.8 mph - N/A   Overcast
1:15 AM 33.8 °F 26.4 °F 28.4 °F 81% 30.18 in 10.0 mi NW 9.2 mph - N/A   Overcast
1:35 AM 33.8 °F 25.8 °F 28.4 °F 81% 30.17 in 10.0 mi NW 10.4 mph 18.4 mph N/A   Mostly Cloudy
1:55 AM 33.8 °F 25.3 °F 28.4 °F 81% 30.17 in 10.0 mi WNW 11.5 mph - N/A   Scattered Clouds
2:15 AM 33.8 °F 24.3 °F 28.4 °F 81% 30.16 in 10.0 mi WNW 13.8 mph 17.3 mph N/A   Clear
2:35 AM 33.8 °F 25.3 °F 28.4 °F 81% 30.16 in 10.0 mi WNW 11.5 mph 18.4 mph N/A   Scattered Clouds
2:55 AM 33.8 °F 25.8 °F 28.4 °F 81% 30.16 in 10.0 mi NW 10.4 mph 17.3 mph N/A   Mostly Cloudy
3:15 AM 33.8 °F 26.4 °F 28.4 °F 81% 30.17 in 10.0 mi NW 9.2 mph - N/A   Overcast
3:35 AM 33.8 °F 27.7 °F 26.6 °F 75% 30.17 in 10.0 mi WNW 6.9 mph 17.3 mph N/A   Mostly Cloudy
3:55 AM 33.8 °F 25.8 °F 28.4 °F 81% 30.18 in 10.0 mi NW 10.4 mph - N/A   Mostly Cloudy
4:15 AM 33.8 °F 24.3 °F 26.6 °F 75% 30.18 in 10.0 mi WNW 13.8 mph 17.3 mph N/A   Scattered Clouds
4:35 AM 32.0 °F 20.8 °F 26.6 °F 80% 30.18 in 10.0 mi WNW 17.3 mph 24.2 mph N/A   Clear
4:55 AM 32.0 °F 23.0 °F 26.6 °F 80% 30.19 in 10.0 mi NW 11.5 mph 25.3 mph N/A   Clear
5:15 AM 32.0 °F 21.2 °F 26.6 °F 80% 30.19 in 10.0 mi NW 16.1 mph 24.2 mph N/A   Clear
5:35 AM 32.0 °F 20.5 °F 24.8 °F 75% 30.19 in 10.0 mi NW 18.4 mph 21.9 mph N/A   Clear
6:15 AM 32.0 °F 25.6 °F 24.8 °F 75% 30.21 in 10.0 mi NNW 6.9 mph 18.4 mph N/A   Clear
6:35 AM 32.0 °F 24.2 °F 24.8 °F 75% 30.21 in 10.0 mi WNW 9.2 mph - N/A   Clear
6:55 AM 32.0 °F 21.6 °F 24.8 °F 75% 30.22 in 10.0 mi WNW 15.0 mph 19.6 mph N/A   Clear
7:15 AM 32.0 °F 24.8 °F 24.8 °F 75% 30.23 in 10.0 mi WNW 8.1 mph 16.1 mph N/A   Clear
7:55 AM 32.0 °F 27.5 °F 23.0 °F 69% 30.25 in 10.0 mi NW 4.6 mph 18.4 mph N/A   Clear
8:15 AM 32.0 °F 23.6 °F 23.0 °F 69% 30.24 in 10.0 mi West 10.4 mph - N/A   Clear
8:35 AM 32.0 °F 24.2 °F 23.0 °F 69% 30.25 in 10.0 mi WNW 9.2 mph 16.1 mph N/A   Scattered Clouds
8:55 AM 32.0 °F 27.5 °F 24.8 °F 75% 30.26 in 10.0 mi NNW 4.6 mph - N/A   Clear
9:15 AM 32.0 °F 25.6 °F 24.8 °F 75% 30.26 in 10.0 mi NNW 6.9 mph - N/A   Clear
9:35 AM 33.8 °F 27.7 °F 23.0 °F 65% 30.27 in 10.0 mi North 6.9 mph - N/A   Clear
9:55 AM 33.8 °F 27.0 °F 23.0 °F 65% 30.28 in 10.0 mi NW 8.1 mph - N/A   Clear
10:35 AM 35.6 °F 31.7 °F 21.2 °F 56% 30.29 in 10.0 mi NNW 4.6 mph - N/A   Clear
10:55 AM 35.6 °F 29.2 °F 19.4 °F 52% 30.29 in 10.0 mi NNW 8.1 mph - N/A   Clear
11:15 AM 35.6 °F 31.7 °F 19.4 °F 52% 30.29 in 10.0 mi NNW 4.6 mph - N/A   Clear
11:35 AM 37.4 °F 34.9 °F 17.6 °F 45% 30.29 in 10.0 mi NNE 3.5 mph - N/A   Clear
11:55 AM 37.4 °F 34.9 °F 14.0 °F 38% 30.28 in 10.0 mi NNW 3.5 mph - N/A   Clear
12:15 PM 39.2 °F 32.0 °F 14.0 °F 36% 30.28 in 10.0 mi NNW 11.5 mph 17.3 mph N/A   Clear
12:35 PM 39.2 °F 33.0 °F 12.2 °F 33% 30.27 in 10.0 mi NNW 9.2 mph 23.0 mph N/A   Clear
12:55 PM 41.0 °F 34.3 °F 10.4 °F 29% 30.26 in 10.0 mi NNW 11.5 mph 20.7 mph N/A   Clear
1:15 PM 41.0 °F 34.3 °F 12.2 °F 31% 30.26 in 10.0 mi NNW 11.5 mph 18.4 mph N/A   Clear
1:35 PM 41.0 °F 33.9 °F 12.2 °F 31% 30.26 in 10.0 mi NNW 12.7 mph 20.7 mph N/A   Clear
1:55 PM 41.0 °F 36.4 °F 12.2 °F 31% 30.26 in 10.0 mi NNW 6.9 mph 18.4 mph N/A   Clear
2:15 PM 41.0 °F 36.4 °F 12.2 °F 31% 30.25 in 10.0 mi North 6.9 mph 17.3 mph N/A   Clear
2:35 PM 41.0 °F 35.8 °F 12.2 °F 31% 30.25 in 10.0 mi NW 8.1 mph 17.3 mph N/A   Clear
2:55 PM 41.0 °F 35.8 °F 14.0 °F 33% 30.24 in 10.0 mi North 8.1 mph - N/A   Clear
3:15 PM 42.8 °F 36.2 °F 14.0 °F 31% 30.25 in 10.0 mi NNW 12.7 mph 17.3 mph N/A   Clear
3:35 PM 41.0 °F 34.7 °F 14.0 °F 33% 30.26 in 10.0 mi NNW 10.4 mph 16.1 mph N/A   Clear
3:55 PM 41.0 °F 38.0 °F 14.0 °F 33% 30.26 in 10.0 mi NW 4.6 mph - N/A   Clear
4:15 PM 41.0 °F 36.4 °F 15.8 °F 36% 30.27 in 10.0 mi NNW 6.9 mph - N/A   Clear
4:35 PM 39.2 °F 35.0 °F 17.6 °F 42% 30.27 in 10.0 mi NNW 5.8 mph - N/A   Clear
5:15 PM 37.4 °F 34.9 °F 17.6 °F 45% 30.28 in 10.0 mi WNW 3.5 mph - N/A   Clear
5:35 PM 37.4 °F 30.3 °F 19.4 °F 48% 30.27 in 10.0 mi WNW 10.4 mph - N/A   Clear
5:55 PM 35.6 °F 29.9 °F 19.4 °F 52% 30.28 in 10.0 mi WNW 6.9 mph - N/A   Clear
6:15 PM 35.6 °F 28.0 °F 19.4 °F 52% 30.28 in 10.0 mi WNW 10.4 mph - N/A   Clear
6:35 PM 35.6 °F 28.0 °F 19.4 °F 52% 30.28 in 10.0 mi WNW 10.4 mph 16.1 mph N/A   Clear
7:15 PM 35.6 °F 28.0 °F 19.4 °F 52% 30.29 in 10.0 mi WNW 10.4 mph 17.3 mph N/A   Clear
7:35 PM 35.6 °F 28.0 °F 19.4 °F 52% 30.29 in 10.0 mi WNW 10.4 mph - N/A   Clear
8:15 PM 35.6 °F 28.0 °F 19.4 °F 52% 30.29 in 10.0 mi WNW 10.4 mph - N/A   Clear
8:35 PM 35.6 °F 27.5 °F 21.2 °F 56% 30.30 in 10.0 mi WNW 11.5 mph 18.4 mph N/A   Clear
9:15 PM 33.8 °F 27.0 °F 23.0 °F 65% 30.30 in 10.0 mi West 8.1 mph - N/A   Clear
9:35 PM 33.8 °F 25.8 °F 23.0 °F 65% 30.31 in 10.0 mi West 10.4 mph 17.3 mph N/A   Clear
10:15 PM 33.8 °F 27.7 °F 23.0 °F 65% 30.31 in 10.0 mi West 6.9 mph - N/A   Clear
11:15 PM 33.8 °F 27.0 °F 21.2 °F 60% 30.32 in 10.0 mi West 8.1 mph - N/A   Clear
11:35 PM 33.8 °F 28.6 °F 21.2 °F 60% 30.32 in 10.0 mi West 5.8 mph - N/A   Clear